User: anonymous   Login
Location: 東京駅
(35.6813°N, 139.7662°E)
Time: 08:49:38
(UTC+09:00)
Language:

Tiangong 1 - Orbit

View from above orbital plane
View from above orbital plane
View from above satellite
View from above satellite

Ground track
Ground track

The orbit data is extracted from the following two-line orbital elements,

1 37820U 11053A   17266.60777169  .00046061  00000-0  18620-3 0  9992
2 37820  42.7582 314.9670 0018723  57.7070  74.4472 15.85258783343557
Epoch (UTC): 23 September 2017 14:35:11
Eccentricity: 0.0018723
inclination: 42.7582°
perigee height: 303 km
apogee height: 328 km
right ascension of ascending node: 314.9670°
argument of perigee: 57.7070°
revolutions per day: 15.85258783
mean anomaly at epoch: 74.4472°
orbit number at epoch: 34355

The dashed part of the orbit path shows where the satellite is in the earth's shadow,  

DLR